FENGYUN 1C DEB, 41832

Orbit data source: Space-Track

FENGYUN 1C DEB, 41832 is space debris in SSO originally from a launch on Mon, 10 May 1999 UTC launched from the Taiyaun Space Center, China (TSC). Fengyun 1C debris stems from the Chinese weather satellite Fengyun-1C, which was intentionally destroyed by a Chinese anti-satellite missile in 2007. This event dramatically increased the amount of space debris, with thousands of trackable fragments posing hazards to satellites and human spaceflight. The Fengyun 1C debris cloud has become a focal point in discussions about space sustainability and the need for international regulations to prevent the creation of new debris.

Loading next visibility...
FENGYUN 1C DEB details
Identifier
41832, 1999-025EYK
Orbit
SSO
Last TLE update15 hours ago
Origin
Flag of CNCASC (CN / PRC)
ManufacturerUnknown
MissionSpacecraft
Bus & MotorUnknown
MassUnknown
Launch date (UTC)
1999-05-10 (26 years ago)
Launch vehicleUnknown
Launch site
Taiyaun Space Center, China (TSC)
Object type
Payload
Rocket body
Debris
Shape & HBRUnknown
Radar Cross SectionSmall (<0.1 m²)

Expand to show TLE details & history

TLE from 15 hours ago
0 FENGYUN 1C DEB
1 41832U 99025EYK 24361.14370270  .00007087  00000-0  32392-2 0  9996
2 41832  98.7558  61.9047 0058496 163.3017 197.0103 14.20856270423513
Epoch: 2024-12-26T03:26Z
Definitive object data (Epoch: 2024-12-26T03:26:55.913Z)
Latitude-0.00004°
Longitude-84.95559°
Altitude865.68 km
Speed7.399 km/s
True Right ascension04h 07m 37s
True Declination0° 00' 00"
Sunlit
Object was in full shadow at TLE epoch
Visualization TLE readout
Latitude-41.78347°
Longitude-76.46719°
Altitude876.975 km
Speed7.393 km/s
Apparent Right ascension05h 14m 04s
Apparent Declination-41° 02' 55"
Sunlit
Object is in daylight
Visualization observer readout
Local Sidereal Time17:50:02
Azimuth102.306° ESE
Elevation-83.071°
Doppler factor1
Orbital elements
Apogee altitude861.722 km
Perigee altitude777.514 km
Semi-major axis7,197.755 km
Eccentricity0.0058496
Inclination98.7558°
RAAN61.9047°
Arg. of periapsis163.3017°
True anomaly196.81557°
Mean anomaly197.0103°
Eccentric anomaly196.9128°
Mean motion3.55425 °/min
BSTAR0.0032392
Orbital period101.29 mins
Loading maneuver chart data...
Loading historical data...
Loading historical data...
Loading historical data...
Loading historical data...
Loading historical data...
Loading historical data...
Loading historical data...

FENGYUN 1C DEB Visibility forecast

Observer location: undefined°, undefined

Span
Click to sort rows by Start time (UTC) header in descending order
Start Az.
Max El. time (UTC)
Max El. Az.
Max El.
End time (UTC)
End Az.
8 mins2024-12-27 03:15:32.347Z115.904° SE2024-12-27 03:19:32.347Z58.005° ENE24.672°2024-12-27 03:23:32.347Z10.064° NNE
8 mins2024-12-27 04:55:32.347Z203.073° SW2024-12-27 04:58:32.347Z249.131° W31.466°2024-12-27 05:03:32.347Z327.474° NNW
8 mins2024-12-27 17:13:32.347Z13.838° NNE2024-12-27 17:17:32.347Z194.001° SSW44.037°2024-12-27 17:21:32.347Z194.981° SSW
|